TimeCDT,TemperatureF,Dew PointF,Humidity,Sea Level PressureIn,VisibilityMPH,Wind Direction,Wind SpeedMPH,Gust SpeedMPH,PrecipitationIn,Events,Conditions,WindDirDegrees,DateUTC
12:15 AM,77.0,71.6,83,30.01,10.0,Calm,Calm,-,N/A,,Unknown,0,2013-09-18 05:15:00
12:35 AM,75.2,71.6,89,30.01,10.0,Calm,Calm,-,N/A,,Unknown,0,2013-09-18 05:35:00
12:55 AM,75.2,71.6,89,30.01,10.0,Calm,Calm,-,N/A,,Unknown,0,2013-09-18 05:55:00
1:15 AM,73.4,71.6,94,30.01,10.0,Calm,Calm,-,N/A,,Unknown,0,2013-09-18 06:15:00
1:35 AM,73.4,71.6,94,30.01,10.0,Calm,Calm,-,N/A,,Unknown,0,2013-09-18 06:35:00
1:55 AM,73.4,71.6,94,30.01,10.0,Calm,Calm,-,N/A,,Unknown,0,2013-09-18 06:55:00
2:15 AM,73.4,71.6,94,30.01,10.0,Calm,Calm,-,N/A,,Unknown,0,2013-09-18 07:15:00
2:35 AM,77.0,71.6,83,30.01,10.0,Calm,Calm,-,N/A,,Unknown,0,2013-09-18 07:35:00
2:55 AM,73.4,71.6,94,30.01,10.0,Calm,Calm,-,N/A,,Unknown,0,2013-09-18 07:55:00
3:15 AM,73.4,71.6,94,30.01,10.0,Calm,Calm,-,N/A,,Unknown,0,2013-09-18 08:15:00
3:35 AM,71.6,71.6,100,30.01,10.0,Calm,Calm,-,N/A,,Unknown,0,2013-09-18 08:35:00
3:55 AM,73.4,71.6,94,30.01,10.0,Calm,Calm,-,N/A,,Unknown,0,2013-09-18 08:55:00
4:15 AM,73.4,71.6,94,30.00,10.0,Calm,Calm,-,N/A,,Unknown,0,2013-09-18 09:15:00
4:35 AM,73.4,71.6,94,30.00,10.0,Calm,Calm,-,N/A,,Unknown,0,2013-09-18 09:35:00
4:55 AM,73.4,71.6,94,30.00,10.0,Calm,Calm,-,N/A,,Unknown,0,2013-09-18 09:55:00
5:15 AM,73.4,71.6,94,30.00,10.0,Calm,Calm,-,N/A,,Unknown,0,2013-09-18 10:15:00
5:35 AM,73.4,71.6,94,30.00,10.0,Calm,Calm,-,N/A,,Unknown,0,2013-09-18 10:35:00
5:55 AM,71.6,71.6,100,30.00,7.0,Calm,Calm,-,N/A,,Unknown,0,2013-09-18 10:55:00
6:15 AM,73.4,71.6,94,30.00,10.0,Calm,Calm,-,N/A,,Unknown,0,2013-09-18 11:15:00
6:35 AM,71.6,71.6,100,30.00,10.0,Calm,Calm,-,N/A,,Unknown,0,2013-09-18 11:35:00
6:55 AM,71.6,71.6,100,30.01,10.0,Calm,Calm,-,N/A,,Unknown,0,2013-09-18 11:55:00
7:15 AM,73.4,71.6,94,30.01,10.0,Calm,Calm,-,N/A,,Unknown,0,2013-09-18 12:15:00
7:35 AM,73.4,71.6,94,30.01,10.0,Calm,Calm,-,N/A,,Unknown,0,2013-09-18 12:35:00
7:55 AM,75.2,73.4,94,30.01,10.0,Calm,Calm,-,N/A,,Unknown,0,2013-09-18 12:55:00
8:15 AM,77.0,73.4,89,30.01,10.0,Calm,Calm,-,N/A,,Unknown,0,2013-09-18 13:15:00
8:35 AM,77.0,71.6,83,30.02,10.0,Calm,Calm,-,N/A,,Unknown,0,2013-09-18 13:35:00
8:55 AM,78.8,73.4,83,30.02,10.0,Calm,Calm,-,N/A,,Unknown,0,2013-09-18 13:55:00
9:15 AM,78.8,73.4,83,30.03,10.0,Calm,Calm,-,N/A,,Unknown,0,2013-09-18 14:15:00
9:35 AM,78.8,71.6,78,30.03,7.0,Calm,Calm,-,N/A,,Unknown,0,2013-09-18 14:35:00
9:55 AM,78.8,71.6,78,30.04,10.0,Calm,Calm,-,N/A,,Unknown,0,2013-09-18 14:55:00
10:15 AM,78.8,71.6,78,30.04,10.0,Calm,Calm,-,N/A,Rain,Light Rain,0,2013-09-18 15:15:00
10:35 AM,78.8,73.4,83,30.04,10.0,Calm,Calm,-,N/A,,Unknown,0,2013-09-18 15:35:00
10:55 AM,80.6,73.4,79,30.04,7.0,Calm,Calm,-,N/A,,Unknown,0,2013-09-18 15:55:00
11:15 AM,80.6,73.4,79,30.04,10.0,Calm,Calm,-,N/A,Rain,Light Rain,0,2013-09-18 16:15:00
11:35 AM,80.6,71.6,74,30.04,10.0,South,3.5,-,N/A,,Unknown,180,2013-09-18 16:35:00
11:55 AM,80.6,73.4,79,30.03,10.0,Calm,Calm,-,N/A,,Unknown,0,2013-09-18 16:55:00
12:15 PM,80.6,73.4,79,30.03,10.0,Calm,Calm,-,N/A,,Unknown,0,2013-09-18 17:15:00
12:35 PM,82.4,73.4,74,30.03,10.0,South,5.8,-,N/A,,Unknown,190,2013-09-18 17:35:00
12:55 PM,82.4,73.4,74,30.02,10.0,South,4.6,-,N/A,,Unknown,190,2013-09-18 17:55:00
1:15 PM,82.4,73.4,74,30.02,10.0,SW,3.5,-,N/A,,Unknown,220,2013-09-18 18:15:00
1:35 PM,82.4,73.4,74,30.01,10.0,SSW,3.5,-,N/A,,Unknown,200,2013-09-18 18:35:00
1:55 PM,82.4,73.4,74,30.01,10.0,SSW,3.5,-,N/A,,Unknown,200,2013-09-18 18:55:00
2:15 PM,84.2,73.4,70,29.99,10.0,South,4.6,-,N/A,,Unknown,180,2013-09-18 19:15:00
2:35 PM,87.8,77.0,70,29.98,10.0,South,5.8,-,N/A,,Unknown,190,2013-09-18 19:35:00
2:55 PM,86.0,73.4,66,29.98,10.0,South,4.6,-,N/A,,Unknown,180,2013-09-18 19:55:00
3:15 PM,87.8,77.0,70,29.97,10.0,Calm,Calm,-,N/A,,Unknown,0,2013-09-18 20:15:00
3:35 PM,89.6,75.2,62,29.96,10.0,Calm,Calm,-,N/A,,Unknown,0,2013-09-18 20:35:00
3:55 PM,91.4,77.0,63,29.95,10.0,SSW,4.6,-,N/A,,Unknown,200,2013-09-18 20:55:00
4:15 PM,91.4,77.0,63,29.95,10.0,South,5.8,-,N/A,,Unknown,180,2013-09-18 21:15:00
4:35 PM,91.4,75.2,59,29.94,10.0,SE,3.5,-,N/A,,Unknown,140,2013-09-18 21:35:00
4:55 PM,91.4,73.4,55,29.93,10.0,South,6.9,-,N/A,,Unknown,190,2013-09-18 21:55:00
5:15 PM,91.4,73.4,55,29.93,10.0,South,4.6,-,N/A,,Unknown,190,2013-09-18 22:15:00
5:35 PM,91.4,73.4,55,29.93,7.0,SSE,3.5,-,N/A,,Unknown,150,2013-09-18 22:35:00
5:55 PM,91.4,73.4,55,29.93,10.0,Calm,Calm,-,N/A,,Unknown,0,2013-09-18 22:55:00
6:15 PM,91.4,73.4,55,29.93,10.0,SSE,3.5,-,N/A,,Unknown,150,2013-09-18 23:15:00
6:35 PM,89.6,73.4,59,29.94,10.0,SSE,3.5,-,N/A,,Unknown,150,2013-09-18 23:35:00
6:55 PM,86.0,71.6,62,29.94,10.0,Calm,Calm,-,N/A,,Unknown,0,2013-09-18 23:55:00
7:15 PM,84.2,71.6,66,29.93,10.0,ESE,3.5,-,N/A,,Unknown,120,2013-09-19 00:15:00
7:35 PM,82.4,71.6,70,29.94,10.0,Calm,Calm,-,N/A,Thunderstorm,Unknown,0,2013-09-19 00:35:00
7:55 PM,80.6,71.6,74,29.93,10.0,Calm,Calm,-,N/A,,Unknown,0,2013-09-19 00:55:00
8:15 PM,80.6,73.4,79,29.94,10.0,Calm,Calm,-,N/A,,Unknown,0,2013-09-19 01:15:00
8:35 PM,78.8,73.4,83,29.95,10.0,Calm,Calm,-,N/A,,Unknown,0,2013-09-19 01:35:00
8:55 PM,78.8,73.4,83,29.96,10.0,Calm,Calm,-,N/A,Rain,Light Rain,0,2013-09-19 01:55:00
9:15 PM,78.8,73.4,83,29.97,10.0,Calm,Calm,-,N/A,Rain,Light Rain,0,2013-09-19 02:15:00
9:35 PM,78.8,73.4,83,29.97,10.0,Calm,Calm,-,N/A,Rain,Light Rain,0,2013-09-19 02:35:00
9:55 PM,78.8,75.2,89,29.97,10.0,Calm,Calm,-,N/A,,Unknown,0,2013-09-19 02:55:00
10:15 PM,77.0,75.2,94,29.97,10.0,Calm,Calm,-,N/A,,Unknown,0,2013-09-19 03:15:00
10:35 PM,77.0,75.2,94,29.97,10.0,Calm,Calm,-,N/A,,Unknown,0,2013-09-19 03:35:00
10:55 PM,77.0,73.4,89,29.96,10.0,Calm,Calm,-,N/A,,Unknown,0,2013-09-19 03:55:00
11:15 PM,77.0,75.2,94,29.96,10.0,Calm,Calm,-,N/A,,Unknown,0,2013-09-19 04:15:00
11:35 PM,77.0,75.2,94,29.96,7.0,Calm,Calm,-,N/A,,Unknown,0,2013-09-19 04:35:00
11:55 PM,77.0,73.4,89,29.95,10.0,Calm,Calm,-,N/A,,Unknown,0,2013-09-19 04:55:00